QPF
0.02 0.01 0.01 0.01 0.01 0.01 0.01 0.01 0.01 0.00 0.00 0.00 0.00 0.00 0.00 0.00 0.00 0.00 0.01 0.00 0.00 0.00 0.01 0.01 0.00 0.00 0.00 0.00 0.01 0.00 0.00 0.01 0.01 0.01 0.01 0.01 0.00 0.00 0.00 0.00 0.00 0.00 0.00 0.00
0.01 0.01 0.01 0.01 0.01 0.00 0.00 0.00 0.00 0.00 0.00 0.00 0.00 0.00 0.00 0.00 0.00 0.00 0.00 0.01 0.00 0.01 0.01 0.01 0.00 0.00 0.00 0.00 0.00 0.00 0.00 0.00 0.01 0.01 0.01 0.01 0.01 0.00 0.00 0.00 0.00 0.00 0.00 0.00
0.01 0.01 0.01 0.01 0.00 0.00 0.00 0.00 0.00 0.00 0.00 0.00 0.00 0.00 0.00 0.00 0.00 0.00 0.01 0.00 0.00 0.00 0.01 0.01 0.01 0.00 0.00 0.01 0.00 0.00 0.01 0.00 0.01 0.01 0.01 0.01 0.01 0.01 0.00 0.01 0.01 0.01 0.00 0.01
0.02 0.02 0.03 0.01 0.00 0.00 0.00 0.00 0.00 0.00 0.00 0.00 0.00 0.00 0.00 0.00 0.00 0.00 0.00 0.00 0.00 0.00 0.00 0.01 0.01 0.00 0.00 0.01 0.00 0.00 0.00 0.00 0.01 0.01 0.01 0.01 0.01 0.01 0.01 0.01 0.01 0.01 0.01 0.01
0.03 0.03 0.02 0.01 0.00 0.00 0.00 0.00 0.00 0.00 0.00 0.00 0.00 0.00 0.00 0.00 0.00 0.00 0.00 0.00 0.00 0.00 0.00 0.00 0.00 0.00 0.00 0.00 0.00 0.00 0.01 0.00 0.00 0.00 0.01 0.01 0.01 0.01 0.01 0.01 0.01 0.01 0.01 0.00
0.04 0.03 0.02 0.01 0.00 0.00 0.00 0.00 0.01 0.00 0.00 0.00 0.00 0.00 0.00 0.00 0.00 0.00 0.00 0.00 0.00 0.00 0.01 0.00 0.00 0.00 0.00 0.00 0.00 0.01 0.01 0.01 0.01 0.01 0.00 0.01 0.01 0.01 0.01 0.01 0.02 0.01 0.01 0.00
0.04 0.03 0.01 0.01 0.00 0.00 0.00 0.00 0.00 0.00 0.00 0.00 0.00 0.00 0.00 0.00 0.00 0.00 0.00 0.00 0.00 0.00 0.00 0.00 0.00 0.00 0.00 0.00 0.00 0.00 0.01 0.01 0.02 0.02 0.02 0.01 0.01 0.01 0.01 0.01 0.01 0.01 0.01 0.01
0.04 0.02 0.01 0.01 0.00 0.00 0.00 0.00 0.00 0.00 0.00 0.00 0.00 0.00 0.00 0.00 0.00 0.00 0.00 0.00 0.00 0.00 0.00 0.00 0.00 0.00 0.00 0.00 0.00 0.01 0.01 0.01 0.01 0.02 0.02 0.02 0.02 0.02 0.01 0.01 0.01 0.01 0.01 0.01
0.02 0.01 0.01 0.01 0.01 0.01 0.00 0.00 0.00 0.00 0.00 0.00 0.00 0.00 0.00 0.00 0.00 0.00 0.00 0.00 0.00 0.00 0.00 0.00 0.00 0.00 0.00 0.00 0.00 0.00 0.01 0.01 0.01 0.01 0.01 0.01 0.01 0.01 0.01 0.01 0.01 0.01 0.01 0.01
0.01 0.01 0.01 0.02 0.01 0.01 0.00 0.00 0.00 0.00 0.00 0.00 0.00 0.00 0.00 0.00 0.00 0.00 0.00 0.00 0.00 0.00 0.00 0.00 0.00 0.00 0.00 0.01 0.01 0.01 0.01 0.01 0.01 0.01 0.01 0.01 0.01 0.01 0.00 0.01 0.01 0.01 0.01 0.01
0.02 0.01 0.02 0.03 0.02 0.01 0.01 0.00 0.00 0.00 0.00 0.00 0.00 0.00 0.00 0.00 0.00 0.00 0.00 0.00 0.00 0.00 0.00 0.00 0.00 0.00 0.00 0.00 0.00 0.00 0.01 0.01 0.01 0.01 0.01 0.01 0.01 0.01 0.01 0.01 0.01 0.02 0.02 0.02
0.03 0.02 0.03 0.03 0.02 0.01 0.00 0.00 0.00 0.00 0.00 0.00 0.00 0.00 0.00 0.00 0.00 0.00 0.00 0.00 0.00 0.00 0.00 0.00 0.00 0.00 0.00 0.00 0.00 0.00 0.00 0.00 0.00 0.01 0.01 0.01 0.01 0.01 0.01 0.01 0.02 0.02 0.02 0.02
0.04 0.03 0.02 0.02 0.02 0.01 0.01 0.00 0.00 0.00 0.00 0.00 0.00 0.00 0.00 0.00 0.00 0.00 0.00 0.00 0.00 0.00 0.00 0.00 0.00 0.00 0.01 0.00 0.00 0.00 0.00 0.01 0.01 0.01 0.01 0.01 0.01 0.01 0.01 0.01 0.01 0.01 0.01 0.01
0.02 0.03 0.03 0.02 0.02 0.02 0.01 0.00 0.00 0.00 0.00 0.00 0.00 0.00 0.00 0.00 0.00 0.00 0.00 0.00 0.01 0.01 0.00 0.00 0.00 0.00 0.01 0.01 0.00 0.01 0.00 0.01 0.01 0.01 0.01 0.01 0.01 0.01 0.01 0.01 0.01 0.01 0.02 0.02
0.02 0.03 0.03 0.02 0.02 0.02 0.01 0.00 0.00 0.00 0.00 0.00 0.00 0.00 0.00 0.00 0.00 0.00 0.00 0.00 0.01 0.01 0.00 0.00 0.00 0.00 0.01 0.01 0.01 0.01 0.01 0.01 0.01 0.01 0.01 0.01 0.01 0.02 0.01 0.01 0.01 0.01 0.02 0.03
0.02 0.02 0.03 0.04 0.03 0.02 0.01 0.01 0.01 0.01 0.00 0.00 0.00 0.00 0.00 0.00 0.00 0.00 0.00 0.01 0.01 0.01 0.01 0.01 0.00 0.01 0.01 0.01 0.01 0.01 0.01 0.01 0.01 0.01 0.01 0.01 0.02 0.02 0.02 0.01 0.01 0.01 0.02 0.04
0.02 0.03 0.04 0.05 0.05 0.04 0.03 0.02 0.01 0.01 0.00 0.00 0.00 0.00 0.00 0.00 0.00 0.00 0.01 0.01 0.01 0.01 0.01 0.01 0.01 0.01 0.01 0.01 0.00 0.00 0.01 0.01 0.01 0.01 0.01 0.01 0.02 0.02 0.02 0.02 0.02 0.02 0.03 0.05
0.03 0.03 0.05 0.05 0.06 0.06 0.05 0.03 0.02 0.01 0.01 0.00 0.00 0.01 0.01 0.00 0.01 0.00 0.00 0.01 0.01 0.01 0.01 0.01 0.01 0.01 0.00 0.00 0.00 0.00 0.00 0.01 0.01 0.01 0.01 0.01 0.02 0.02 0.03 0.03 0.04 0.05 0.05 0.06
0.02 0.02 0.03 0.04 0.05 0.06 0.06 0.04 0.03 0.01 0.01 0.01 0.01 0.01 0.01 0.00 0.01 0.01 0.00 0.01 0.01 0.01 0.01 0.01 0.01 0.01 0.01 0.01 0.01 0.01 0.01 0.01 0.01 0.01 0.02 0.02 0.02 0.02 0.03 0.03 0.04 0.04 0.04 0.05
0.03 0.02 0.02 0.02 0.03 0.04 0.05 0.03 0.02 0.01 0.01 0.01 0.01 0.01 0.01 0.01 0.01 0.01 0.01 0.01 0.01 0.01 0.01 0.01 0.01 0.01 0.02 0.02 0.02 0.02 0.02 0.02 0.02 0.02 0.03 0.03 0.02 0.03 0.03 0.02 0.02 0.02 0.02 0.03
0.03 0.03 0.02 0.02 0.02 0.02 0.04 0.04 0.02 0.01 0.01 0.01 0.01 0.02 0.01 0.01 0.01 0.01 0.01 0.01 0.01 0.01 0.01 0.02 0.01 0.01 0.01 0.02 0.03 0.03 0.03 0.03 0.02 0.02 0.03 0.04 0.03 0.03 0.03 0.02 0.02 0.02 0.02 0.02
0.02 0.02 0.02 0.02 0.02 0.02 0.02 0.03 0.03 0.02 0.01 0.01 0.01 0.01 0.01 0.02 0.02 0.01 0.01 0.01 0.01 0.01 0.01 0.01 0.02 0.02 0.01 0.02 0.02 0.02 0.03 0.03 0.03 0.03 0.03 0.04 0.04 0.04 0.03 0.02 0.02 0.02 0.02 0.02
0.03 0.03 0.02 0.02 0.03 0.02 0.02 0.02 0.03 0.03 0.02 0.02 0.02 0.01 0.01 0.02 0.02 0.02 0.01 0.01 0.01 0.01 0.01 0.01 0.02 0.03 0.02 0.02 0.02 0.02 0.02 0.02 0.02 0.02 0.02 0.02 0.02 0.03 0.03 0.03 0.02 0.02 0.02 0.02
0.03 0.03 0.03 0.03 0.03 0.02 0.02 0.02 0.03 0.03 0.03 0.03 0.03 0.02 0.02 0.02 0.02 0.01 0.02 0.02 0.02 0.02 0.01 0.01 0.02 0.03 0.02 0.02 0.01 0.01 0.01 0.01 0.02 0.02 0.02 0.02 0.02 0.02 0.02 0.02 0.02 0.02 0.02 0.02
0.02 0.02 0.03 0.03 0.04 0.03 0.03 0.03 0.03 0.04 0.04 0.04 0.04 0.03 0.03 0.02 0.01 0.01 0.02 0.01 0.01 0.01 0.01 0.01 0.02 0.03 0.03 0.02 0.02 0.02 0.01 0.01 0.02 0.02 0.02 0.02 0.02 0.02 0.01 0.01 0.01 0.01 0.01 0.01
0.01 0.01 0.02 0.02 0.03 0.03 0.03 0.03 0.03 0.04 0.04 0.04 0.04 0.03 0.02 0.02 0.02 0.01 0.01 0.02 0.02 0.02 0.02 0.02 0.02 0.02 0.02 0.02 0.02 0.02 0.02 0.02 0.02 0.02 0.02 0.02 0.03 0.02 0.01 0.01 0.01 0.01 0.01 0.02
0.01 0.01 0.01 0.01 0.02 0.02 0.02 0.03 0.03 0.04 0.05 0.05 0.04 0.04 0.03 0.02 0.02 0.02 0.02 0.02 0.03 0.03 0.03 0.03 0.04 0.04 0.03 0.03 0.02 0.02 0.02 0.02 0.02 0.02 0.02 0.02 0.03 0.02 0.01 0.01 0.01 0.02 0.02 0.02
MSLP
1019.53 1019.98 1020.41 1020.82 1021.21 1021.56 1021.86 1022.08 1022.21 1022.25 1022.19 1022.04 1021.83 1021.57 1021.30 1021.03 1020.78 1020.56 1020.37 1020.20 1020.05 1019.90 1019.75 1019.61 1019.50 1019.42 1019.40 1019.43 1019.53 1019.69 1019.88 1020.08 1020.27 1020.42 1020.51 1020.55 1020.53 1020.48 1020.42 1020.38 1020.37 1020.42 1020.52 1020.65
1019.66 1020.05 1020.40 1020.71 1020.98 1021.21 1021.40 1021.55 1021.64 1021.68 1021.66 1021.60 1021.50 1021.37 1021.22 1021.07 1020.91 1020.74 1020.57 1020.39 1020.20 1019.99 1019.79 1019.59 1019.43 1019.32 1019.28 1019.32 1019.43 1019.60 1019.82 1020.06 1020.29 1020.48 1020.62 1020.70 1020.73 1020.72 1020.70 1020.69 1020.70 1020.75 1020.84 1020.97
1019.78 1020.10 1020.35 1020.54 1020.69 1020.80 1020.88 1020.95 1021.00 1021.04 1021.07 1021.09 1021.09 1021.08 1021.06 1021.01 1020.94 1020.83 1020.68 1020.49 1020.26 1020.01 1019.75 1019.50 1019.29 1019.14 1019.07 1019.10 1019.21 1019.40 1019.64 1019.91 1020.17 1020.41 1020.60 1020.74 1020.83 1020.88 1020.90 1020.93 1020.97 1021.03 1021.11 1021.22
1019.85 1020.09 1020.24 1020.32 1020.35 1020.34 1020.33 1020.33 1020.35 1020.39 1020.45 1020.54 1020.64 1020.74 1020.82 1020.87 1020.87 1020.81 1020.68 1020.49 1020.24 1019.95 1019.64 1019.34 1019.08 1018.89 1018.79 1018.79 1018.89 1019.08 1019.33 1019.62 1019.91 1020.20 1020.44 1020.63 1020.78 1020.89 1020.97 1021.04 1021.11 1021.19 1021.27 1021.36
1019.81 1019.97 1020.03 1020.01 1019.94 1019.85 1019.76 1019.71 1019.70 1019.75 1019.84 1019.99 1020.17 1020.36 1020.53 1020.66 1020.72 1020.71 1020.61 1020.42 1020.15 1019.83 1019.48 1019.14 1018.84 1018.61 1018.47 1018.44 1018.52 1018.69 1018.93 1019.22 1019.54 1019.84 1020.12 1020.37 1020.58 1020.74 1020.88 1021.00 1021.10 1021.20 1021.29 1021.36
1019.60 1019.69 1019.68 1019.59 1019.46 1019.31 1019.18 1019.10 1019.08 1019.14 1019.28 1019.48 1019.72 1019.98 1020.22 1020.41 1020.53 1020.56 1020.48 1020.30 1020.03 1019.69 1019.32 1018.95 1018.62 1018.35 1018.17 1018.11 1018.15 1018.28 1018.50 1018.78 1019.09 1019.40 1019.71 1019.99 1020.24 1020.45 1020.64 1020.79 1020.93 1021.05 1021.15 1021.23
1019.19 1019.23 1019.17 1019.04 1018.88 1018.71 1018.57 1018.50 1018.50 1018.59 1018.77 1019.02 1019.32 1019.64 1019.93 1020.18 1020.34 1020.41 1020.36 1020.19 1019.93 1019.59 1019.21 1018.83 1018.47 1018.17 1017.96 1017.85 1017.84 1017.93 1018.11 1018.35 1018.64 1018.94 1019.24 1019.54 1019.81 1020.05 1020.27 1020.45 1020.62 1020.76 1020.87 1020.96
1018.59 1018.59 1018.50 1018.37 1018.21 1018.06 1017.95 1017.91 1017.97 1018.11 1018.34 1018.65 1019.00 1019.37 1019.71 1020.00 1020.21 1020.31 1020.28 1020.15 1019.90 1019.58 1019.20 1018.82 1018.45 1018.12 1017.88 1017.72 1017.67 1017.71 1017.83 1018.02 1018.25 1018.52 1018.80 1019.07 1019.34 1019.58 1019.81 1020.01 1020.18 1020.34 1020.46 1020.57
1017.84 1017.82 1017.73 1017.61 1017.49 1017.39 1017.35 1017.38 1017.51 1017.72 1018.02 1018.39 1018.80 1019.22 1019.60 1019.93 1020.17 1020.30 1020.31 1020.21 1019.99 1019.69 1019.34 1018.96 1018.59 1018.26 1017.98 1017.79 1017.67 1017.65 1017.70 1017.82 1017.99 1018.19 1018.42 1018.65 1018.88 1019.10 1019.30 1019.49 1019.66 1019.81 1019.94 1020.06
1017.04 1016.99 1016.92 1016.84 1016.78 1016.77 1016.82 1016.95 1017.16 1017.47 1017.85 1018.28 1018.75 1019.21 1019.64 1020.00 1020.27 1020.43 1020.47 1020.40 1020.22 1019.96 1019.63 1019.27 1018.91 1018.57 1018.27 1018.04 1017.87 1017.78 1017.75 1017.79 1017.87 1017.99 1018.14 1018.30 1018.46 1018.63 1018.79 1018.94 1019.08 1019.21 1019.33 1019.44
1016.27 1016.23 1016.18 1016.16 1016.18 1016.27 1016.42 1016.66 1016.99 1017.38 1017.85 1018.35 1018.87 1019.37 1019.83 1020.22 1020.51 1020.70 1020.77 1020.73 1020.59 1020.36 1020.07 1019.74 1019.39 1019.05 1018.74 1018.47 1018.25 1018.09 1017.98 1017.92 1017.91 1017.93 1017.98 1018.05 1018.13 1018.21 1018.29 1018.38 1018.47 1018.56 1018.64 1018.74
1015.62 1015.59 1015.60 1015.65 1015.76 1015.95 1016.22 1016.58 1017.00 1017.50 1018.04 1018.60 1019.16 1019.69 1020.17 1020.58 1020.89 1021.09 1021.19 1021.18 1021.07 1020.88 1020.62 1020.32 1019.99 1019.66 1019.34 1019.03 1018.77 1018.54 1018.35 1018.20 1018.09 1018.01 1017.95 1017.91 1017.88 1017.87 1017.86 1017.86 1017.88 1017.90 1017.94 1017.99
1015.13 1015.15 1015.22 1015.35 1015.56 1015.86 1016.24 1016.70 1017.23 1017.80 1018.40 1019.01 1019.59 1020.14 1020.63 1021.03 1021.35 1021.57 1021.68 1021.70 1021.62 1021.46 1021.24 1020.97 1020.66 1020.34 1020.01 1019.68 1019.38 1019.09 1018.83 1018.59 1018.38 1018.19 1018.03 1017.88 1017.74 1017.62 1017.52 1017.42 1017.35 1017.29 1017.26 1017.25
1014.82 1014.89 1015.04 1015.27 1015.58 1015.98 1016.47 1017.02 1017.62 1018.25 1018.89 1019.52 1020.12 1020.67 1021.14 1021.54 1021.85 1022.07 1022.19 1022.23 1022.18 1022.05 1021.86 1021.62 1021.34 1021.03 1020.70 1020.36 1020.02 1019.69 1019.36 1019.05 1018.75 1018.47 1018.20 1017.95 1017.72 1017.49 1017.29 1017.10 1016.93 1016.79 1016.68 1016.60
1014.63 1014.78 1015.02 1015.35 1015.76 1016.26 1016.83 1017.45 1018.11 1018.78 1019.44 1020.08 1020.67 1021.20 1021.66 1022.04 1022.33 1022.55 1022.67 1022.72 1022.70 1022.60 1022.45 1022.24 1021.98 1021.69 1021.37 1021.03 1020.66 1020.29 1019.92 1019.55 1019.18 1018.82 1018.47 1018.13 1017.81 1017.50 1017.20 1016.93 1016.67 1016.45 1016.25 1016.09
1014.51 1014.76 1015.10 1015.53 1016.04 1016.63 1017.27 1017.94 1018.64 1019.32 1019.99 1020.61 1021.18 1021.68 1022.11 1022.47 1022.75 1022.96 1023.09 1023.16 1023.15 1023.09 1022.96 1022.79 1022.56 1022.29 1021.98 1021.64 1021.27 1020.88 1020.47 1020.05 1019.64 1019.22 1018.81 1018.40 1018.01 1017.63 1017.26 1016.91 1016.58 1016.28 1016.01 1015.76
1014.42 1014.77 1015.21 1015.74 1016.34 1017.00 1017.69 1018.41 1019.12 1019.81 1020.46 1021.06 1021.60 1022.08 1022.49 1022.83 1023.10 1023.30 1023.44 1023.52 1023.54 1023.50 1023.41 1023.26 1023.06 1022.81 1022.52 1022.18 1021.81 1021.41 1020.98 1020.54 1020.09 1019.64 1019.18 1018.74 1018.29 1017.86 1017.44 1017.04 1016.65 1016.28 1015.94 1015.62
1014.32 1014.77 1015.32 1015.93 1016.61 1017.33 1018.07 1018.80 1019.52 1020.20 1020.84 1021.42 1021.94 1022.39 1022.78 1023.11 1023.37 1023.58 1023.73 1023.83 1023.87 1023.85 1023.78 1023.66 1023.48 1023.25 1022.97 1022.64 1022.27 1021.86 1021.43 1020.97 1020.51 1020.04 1019.56 1019.09 1018.62 1018.16 1017.71 1017.26 1016.83 1016.41 1016.00 1015.62
1014.24 1014.79 1015.42 1016.11 1016.85 1017.61 1018.37 1019.12 1019.84 1020.51 1021.13 1021.70 1022.20 1022.64 1023.02 1023.35 1023.61 1023.83 1023.99 1024.10 1024.16 1024.16 1024.10 1023.99 1023.83 1023.60 1023.32 1023.00 1022.63 1022.22 1021.78 1021.33 1020.86 1020.38 1019.90 1019.41 1018.93 1018.46 1017.98 1017.51 1017.04 1016.59 1016.14 1015.70
1014.24 1014.87 1015.56 1016.31 1017.08 1017.87 1018.64 1019.39 1020.11 1020.77 1021.38 1021.94 1022.44 1022.88 1023.26 1023.59 1023.87 1024.09 1024.26 1024.38 1024.44 1024.44 1024.38 1024.27 1024.10 1023.87 1023.58 1023.25 1022.88 1022.47 1022.03 1021.58 1021.11 1020.63 1020.15 1019.67 1019.18 1018.70 1018.21 1017.72 1017.23 1016.74 1016.26 1015.78
1014.38 1015.06 1015.80 1016.58 1017.37 1018.16 1018.94 1019.69 1020.39 1021.05 1021.66 1022.21 1022.71 1023.16 1023.55 1023.88 1024.16 1024.39 1024.56 1024.66 1024.71 1024.70 1024.62 1024.49 1024.29 1024.04 1023.75 1023.40 1023.02 1022.61 1022.17 1021.72 1021.25 1020.78 1020.30 1019.82 1019.34 1018.85 1018.35 1017.85 1017.34 1016.83 1016.31 1015.80
1014.72 1015.43 1016.20 1016.98 1017.78 1018.56 1019.32 1020.06 1020.75 1021.40 1022.01 1022.56 1023.06 1023.51 1023.90 1024.24 1024.52 1024.73 1024.88 1024.96 1024.98 1024.93 1024.82 1024.64 1024.41 1024.13 1023.81 1023.45 1023.06 1022.64 1022.20 1021.76 1021.30 1020.83 1020.36 1019.88 1019.39 1018.90 1018.39 1017.88 1017.35 1016.82 1016.28 1015.75
1015.27 1016.01 1016.77 1017.55 1018.33 1019.09 1019.83 1020.54 1021.22 1021.85 1022.45 1023.00 1023.49 1023.94 1024.32 1024.65 1024.90 1025.09 1025.20 1025.24 1025.21 1025.11 1024.95 1024.73 1024.46 1024.14 1023.79 1023.42 1023.01 1022.59 1022.16 1021.72 1021.27 1020.81 1020.34 1019.86 1019.37 1018.87 1018.35 1017.82 1017.28 1016.73 1016.17 1015.62
1016.03 1016.76 1017.52 1018.27 1019.02 1019.75 1020.46 1021.14 1021.78 1022.40 1022.97 1023.51 1023.99 1024.41 1024.77 1025.07 1025.29 1025.43 1025.49 1025.48 1025.39 1025.23 1025.01 1024.74 1024.43 1024.08 1023.72 1023.33 1022.92 1022.51 1022.09 1021.66 1021.22 1020.76 1020.29 1019.81 1019.31 1018.79 1018.26 1017.71 1017.15 1016.59 1016.02 1015.45
1016.92 1017.65 1018.38 1019.11 1019.81 1020.50 1021.16 1021.80 1022.42 1023.00 1023.54 1024.04 1024.49 1024.88 1025.20 1025.45 1025.62 1025.70 1025.71 1025.63 1025.48 1025.26 1024.99 1024.69 1024.35 1023.99 1023.61 1023.22 1022.83 1022.43 1022.02 1021.61 1021.17 1020.72 1020.25 1019.76 1019.25 1018.71 1018.16 1017.59 1017.01 1016.43 1015.85 1015.28
1017.87 1018.59 1019.29 1019.98 1020.64 1021.28 1021.89 1022.49 1023.05 1023.59 1024.09 1024.55 1024.95 1025.29 1025.56 1025.75 1025.86 1025.88 1025.82 1025.69 1025.48 1025.22 1024.92 1024.59 1024.24 1023.88 1023.51 1023.14 1022.77 1022.39 1022.01 1021.60 1021.18 1020.72 1020.24 1019.73 1019.19 1018.63 1018.04 1017.45 1016.84 1016.25 1015.66 1015.09
1018.80 1019.50 1020.17 1020.81 1021.43 1022.01 1022.58 1023.12 1023.64 1024.12 1024.57 1024.98 1025.32 1025.61 1025.82 1025.95 1025.99 1025.96 1025.85 1025.66 1025.42 1025.14 1024.82 1024.49 1024.15 1023.80 1023.46 1023.12 1022.78 1022.42 1022.05 1021.65 1021.23 1020.76 1020.25 1019.71 1019.13 1018.52 1017.90 1017.27 1016.64 1016.02 1015.43 1014.86
Thickness
5657 5662 5665 5668 5671 5672 5673 5678 5678 5688 5693 5705 5710 5711 5712 5714 5714 5713 5712 5711 5711 5710 5710 5708 5707 5706 5704 5702 5699 5697 5695 5694 5693 5693 5692 5690 5689 5688 5687 5687 5687 5686 5686 5685
5646 5653 5657 5659 5668 5672 5673 5677 5679 5682 5689 5707 5710 5711 5710 5711 5709 5708 5709 5708 5709 5709 5708 5707 5706 5704 5703 5701 5698 5697 5694 5693 5691 5691 5690 5688 5687 5686 5685 5684 5684 5683 5683 5682
5637 5646 5647 5652 5670 5672 5675 5680 5681 5680 5692 5701 5700 5702 5704 5706 5706 5706 5707 5706 5706 5706 5707 5707 5706 5705 5703 5701 5699 5696 5694 5692 5690 5689 5687 5686 5685 5683 5682 5681 5680 5679 5679 5678
5627 5631 5628 5664 5678 5677 5674 5679 5684 5687 5693 5696 5697 5700 5703 5705 5704 5704 5704 5704 5705 5705 5705 5706 5706 5705 5703 5700 5698 5695 5694 5692 5689 5687 5685 5683 5682 5681 5680 5679 5677 5676 5675 5674
5620 5623 5638 5658 5667 5669 5668 5673 5684 5685 5688 5691 5695 5695 5697 5701 5702 5702 5703 5703 5704 5705 5705 5704 5704 5703 5701 5699 5697 5694 5692 5690 5688 5686 5684 5682 5680 5679 5679 5677 5676 5674 5673 5671
5614 5615 5627 5654 5666 5669 5666 5665 5682 5684 5684 5686 5685 5683 5691 5698 5698 5698 5700 5700 5702 5703 5703 5702 5702 5701 5698 5697 5695 5693 5691 5689 5687 5685 5683 5680 5679 5678 5676 5674 5673 5671 5670 5669
5610 5615 5634 5654 5657 5657 5648 5663 5678 5680 5681 5681 5681 5687 5692 5694 5693 5694 5695 5696 5698 5698 5698 5699 5699 5698 5696 5695 5694 5693 5690 5688 5685 5683 5682 5680 5678 5675 5673 5671 5669 5668 5667 5666
5611 5612 5628 5648 5647 5648 5660 5672 5674 5675 5677 5678 5680 5683 5686 5687 5687 5689 5690 5691 5693 5694 5695 5695 5696 5695 5695 5693 5693 5691 5687 5685 5682 5681 5679 5677 5674 5671 5670 5668 5665 5664 5663 5663
5618 5626 5640 5644 5647 5654 5659 5662 5667 5669 5672 5673 5674 5676 5679 5681 5682 5684 5686 5688 5689 5690 5690 5691 5692 5693 5692 5691 5690 5688 5685 5682 5680 5678 5676 5674 5671 5669 5667 5665 5663 5661 5660 5659
5614 5624 5631 5635 5641 5645 5650 5654 5660 5664 5666 5667 5668 5671 5674 5676 5678 5679 5682 5683 5685 5686 5686 5687 5688 5688 5688 5688 5686 5684 5682 5680 5678 5675 5673 5671 5669 5667 5665 5664 5662 5660 5659 5657
5608 5617 5621 5627 5632 5638 5642 5649 5653 5657 5660 5662 5664 5666 5669 5671 5673 5675 5677 5679 5681 5683 5683 5684 5685 5684 5684 5684 5683 5681 5679 5677 5675 5673 5671 5668 5666 5665 5664 5662 5661 5658 5657 5656
5603 5613 5616 5622 5629 5634 5637 5642 5646 5649 5652 5656 5659 5661 5663 5665 5668 5671 5673 5675 5677 5678 5680 5681 5681 5681 5681 5680 5680 5678 5675 5674 5672 5670 5667 5665 5663 5659 5655 5656 5654 5653 5652 5652
5603 5608 5612 5617 5623 5627 5631 5637 5641 5644 5647 5650 5653 5655 5657 5660 5662 5666 5668 5670 5672 5674 5675 5677 5677 5676 5676 5676 5677 5676 5674 5672 5669 5667 5664 5662 5660 5657 5653 5648 5646 5646 5645 5645
5598 5600 5604 5610 5615 5621 5625 5631 5635 5639 5642 5645 5647 5649 5651 5654 5656 5659 5662 5666 5668 5670 5671 5672 5672 5672 5672 5673 5672 5672 5671 5668 5666 5664 5662 5659 5657 5655 5652 5649 5646 5643 5640 5638
5592 5595 5600 5605 5609 5613 5618 5623 5626 5630 5634 5637 5639 5641 5644 5647 5650 5654 5658 5660 5662 5664 5665 5667 5667 5667 5668 5669 5668 5668 5666 5664 5663 5661 5659 5656 5654 5652 5649 5647 5644 5641 5638 5633
5588 5591 5594 5598 5602 5607 5611 5616 5619 5623 5626 5629 5632 5634 5638 5641 5645 5648 5651 5654 5656 5658 5660 5662 5663 5663 5664 5664 5664 5663 5661 5659 5657 5657 5655 5652 5650 5647 5645 5642 5640 5637 5635 5632
5581 5585 5589 5593 5596 5601 5604 5608 5612 5616 5620 5623 5625 5628 5631 5634 5638 5641 5644 5647 5650 5653 5655 5656 5658 5659 5659 5659 5659 5658 5657 5654 5651 5652 5651 5649 5646 5643 5641 5638 5636 5634 5631 5629
5577 5581 5584 5587 5591 5594 5598 5602 5605 5609 5613 5616 5619 5621 5624 5628 5632 5635 5638 5641 5643 5646 5648 5650 5652 5652 5653 5654 5654 5654 5653 5650 5648 5647 5646 5644 5641 5639 5636 5634 5631 5629 5626 5621
5570 5573 5577 5581 5585 5588 5592 5596 5599 5603 5607 5610 5612 5615 5618 5622 5626 5629 5631 5633 5636 5639 5642 5645 5644 5646 5647 5648 5647 5647 5647 5645 5644 5642 5640 5637 5635 5634 5631 5629 5626 5624 5621 5617
5563 5566 5570 5573 5577 5581 5586 5589 5593 5596 5600 5603 5607 5609 5612 5616 5619 5621 5623 5626 5631 5634 5637 5637 5638 5640 5641 5641 5640 5642 5641 5640 5638 5636 5634 5632 5630 5628 5626 5623 5621 5618 5615 5612
5556 5559 5562 5566 5569 5574 5578 5582 5585 5589 5592 5596 5600 5603 5606 5609 5612 5614 5616 5619 5623 5625 5627 5628 5631 5633 5634 5634 5633 5635 5635 5634 5632 5630 5628 5626 5624 5622 5619 5617 5614 5611 5609 5605
5550 5552 5555 5558 5563 5566 5570 5574 5578 5581 5585 5588 5592 5595 5598 5601 5604 5606 5608 5611 5614 5615 5619 5622 5624 5625 5626 5625 5627 5628 5627 5626 5625 5623 5621 5619 5617 5614 5611 5609 5606 5603 5600 5597
5542 5545 5548 5551 5554 5558 5562 5565 5569 5573 5577 5580 5584 5587 5590 5593 5596 5599 5601 5604 5606 5608 5612 5615 5616 5615 5615 5617 5619 5620 5619 5618 5616 5615 5613 5611 5609 5607 5604 5601 5598 5595 5592 5588
5536 5539 5541 5543 5547 5551 5554 5557 5561 5565 5568 5572 5576 5579 5582 5585 5589 5592 5594 5595 5597 5599 5603 5605 5606 5606 5607 5610 5611 5611 5610 5609 5608 5606 5605 5603 5601 5598 5595 5592 5589 5586 5583 5579
5529 5532 5535 5537 5541 5544 5547 5550 5554 5557 5560 5564 5567 5571 5575 5578 5582 5584 5587 5589 5590 5591 5595 5596 5597 5597 5600 5601 5602 5601 5601 5600 5599 5597 5596 5594 5592 5590 5587 5584 5581 5578 5575 5571
5523 5525 5527 5530 5533 5535 5539 5543 5546 5549 5553 5556 5559 5563 5567 5571 5574 5577 5579 5581 5583 5584 5586 5587 5588 5589 5591 5592 5592 5592 5591 5590 5589 5587 5586 5585 5583 5581 5578 5576 5572 5569 5566 5563
5516 5518 5520 5523 5526 5529 5532 5536 5539 5542 5545 5548 5552 5556 5559 5563 5566 5569 5571 5573 5574 5576 5577 5578 5580 5580 5581 5582 5582 5581 5581 5580 5579 5578 5577 5575 5573 5571 5569 5567 5564 5560 5557 5554